Location: Litvinovka
(48.6667°N, 34.3500°E)
Time: 00:42:28
(UTC+00:00)

Cosmos 2266 Rocket - Pass Details

Date: 18 September 2020
Orbit: 934 x 1008 km, 82.9° (Epoch: 23 October)

Event Time Altitude Azimuth Distance (km) Brightness Sun altitude
Rises 19:13:33 0° 351° (N) 3,617 7.8 -31.1°
Reaches altitude 10° 19:16:04 10° 352° (N) 2,663 6.9 -31.4°
Enters shadow 19:21:00 61° 5° (N) 1,061 4.2 -31.9°
